Location: Central Falls
(41.8900°N, 71.3929°W)
Time: 10:55:14
(UTC+00:00)

A-11 Canister half - Pass Details

Date: 04 December 2023
Orbit: 1526 x 1682 km, 47.3° (Epoch: 20 February)

Event Time Altitude Azimuth Distance (km) Brightness Sun altitude
Rises 07:00:11 0° 297° (WNW) 4,885 - -54.0°
Reaches altitude 10° 07:03:32 10° 291° (WNW) 3,877 - -53.4°
Maximum altitude 07:12:38 44° 224° (SW) 2,099 - -51.8°
Drops below altitude 10° 07:21:27 10° 156° (SSE) 3,748 - -50.3°
Exits shadow 07:22:42 - 153° (SSE) 4,121 11.3 -50.0°
Sets 07:24:39 0° 150° (SSE) 4,711 11.7 -49.7°
